owner,sensor,date,latitude,longitude,vertical_datum,sea_water_temperature,qcFlag
Enven,ioos:station:wmo:42362:1,2021-05-04T02:44:00Z,27.7950,-90.6470,12.0,24.5,11111222
Enven,ioos:station:wmo:42362:1,2021-05-04T02:54:00Z,27.7950,-90.6470,12.0,24.4,11111222
Enven,ioos:station:wmo:42362:1,2021-05-04T03:04:00Z,27.7950,-90.6470,12.0,24.4,11111222
Enven,ioos:station:wmo:42362:1,2021-05-04T03:14:00Z,27.7950,-90.6470,12.0,24.3,11111222
Enven,ioos:station:wmo:42362:1,2021-05-04T03:24:00Z,27.7950,-90.6470,12.0,24.3,11111222
Enven,ioos:station:wmo:42362:1,2021-05-04T03:34:00Z,27.7950,-90.6470,12.0,24.3,11111222
Enven,ioos:station:wmo:42362:1,2021-05-04T03:44:00Z,27.7950,-90.6470,12.0,24.3,11111222
Enven,ioos:station:wmo:42362:1,2021-05-04T03:54:00Z,27.7950,-90.6470,12.0,24.2,11111222
Enven,ioos:station:wmo:42362:1,2021-05-04T04:04:00Z,27.7950,-90.6470,12.0,24.2,11111222
Enven,ioos:station:wmo:42362:1,2021-05-04T04:14:00Z,27.7950,-90.6470,12.0,24.2,11111222
Enven,ioos:station:wmo:42362:1,2021-05-04T04:24:00Z,27.7950,-90.6470,12.0,24.2,11111222
Enven,ioos:station:wmo:42362:1,2021-05-04T04:34:00Z,27.7950,-90.6470,12.0,24.3,11111222
Enven,ioos:station:wmo:42362:1,2021-05-04T04:44:00Z,27.7950,-90.6470,12.0,24.2,11111222
Enven,ioos:station:wmo:42362:1,2021-05-04T04:54:00Z,27.7950,-90.6470,12.0,24.2,11111222
Enven,ioos:station:wmo:42362:1,2021-05-04T05:04:00Z,27.7950,-90.6470,12.0,24.2,11111222
Enven,ioos:station:wmo:42362:1,2021-05-04T05:14:00Z,27.7950,-90.6470,12.0,24.1,11111222
Enven,ioos:station:wmo:42362:1,2021-05-04T05:28:00Z,27.7950,-90.6470,12.0,24.1,11111222
Enven,ioos:station:wmo:42362:1,2021-05-04T05:38:00Z,27.7950,-90.6470,12.0,24.1,11111222
Enven,ioos:station:wmo:42362:1,2021-05-04T05:48:00Z,27.7950,-90.6470,12.0,24.1,11111222
Enven,ioos:station:wmo:42362:1,2021-05-04T05:58:00Z,27.7950,-90.6470,12.0,24.1,11111222
Enven,ioos:station:wmo:42362:1,2021-05-04T06:08:00Z,27.7950,-90.6470,12.0,24.1,11111222
Enven,ioos:station:wmo:42362:1,2021-05-04T06:18:00Z,27.7950,-90.6470,12.0,24.0,11111222
Enven,ioos:station:wmo:42362:1,2021-05-04T06:28:00Z,27.7950,-90.6470,12.0,24.0,11111222
Enven,ioos:station:wmo:42362:1,2021-05-04T06:38:00Z,27.7950,-90.6470,12.0,23.9,11111222
Enven,ioos:station:wmo:42362:1,2021-05-04T06:48:00Z,27.7950,-90.6470,12.0,24.0,11111222
Enven,ioos:station:wmo:42362:1,2021-05-04T06:58:00Z,27.7950,-90.6470,12.0,24.0,11111222
Enven,ioos:station:wmo:42362:1,2021-05-04T07:08:00Z,27.7950,-90.6470,12.0,23.9,11111222
Enven,ioos:station:wmo:42362:1,2021-05-04T07:18:00Z,27.7950,-90.6470,12.0,23.9,11111222
Enven,ioos:station:wmo:42362:1,2021-05-04T07:28:00Z,27.7950,-90.6470,12.0,23.9,11111222
Enven,ioos:station:wmo:42362:1,2021-05-04T07:38:00Z,27.7950,-90.6470,12.0,23.9,11111222
Enven,ioos:station:wmo:42362:1,2021-05-04T07:48:00Z,27.7950,-90.6470,12.0,23.9,11111222
Enven,ioos:station:wmo:42362:1,2021-05-04T07:58:00Z,27.7950,-90.6470,12.0,23.9,11111222
Enven,ioos:station:wmo:42362:1,2021-05-04T08:08:00Z,27.7950,-90.6470,12.0,24.0,11111222
Enven,ioos:station:wmo:42362:1,2021-05-04T08:18:00Z,27.7950,-90.6470,12.0,23.9,11111222
Enven,ioos:station:wmo:42362:1,2021-05-04T08:28:00Z,27.7950,-90.6470,12.0,23.9,11111222
Enven,ioos:station:wmo:42362:1,2021-05-04T08:38:00Z,27.7950,-90.6470,12.0,23.9,11111222
Enven,ioos:station:wmo:42362:1,2021-05-04T08:48:00Z,27.7950,-90.6470,12.0,24.0,11111222
Enven,ioos:station:wmo:42362:1,2021-05-04T08:58:00Z,27.7950,-90.6470,12.0,24.0,11111222
Enven,ioos:station:wmo:42362:1,2021-05-04T09:08:00Z,27.7950,-90.6470,12.0,24.0,11111222
Enven,ioos:station:wmo:42362:1,2021-05-04T09:18:00Z,27.7950,-90.6470,12.0,23.9,11111222
Enven,ioos:station:wmo:42362:1,2021-05-04T09:28:00Z,27.7950,-90.6470,12.0,23.9,11111222
Enven,ioos:station:wmo:42362:1,2021-05-04T09:38:00Z,27.7950,-90.6470,12.0,23.9,11111222
Enven,ioos:station:wmo:42362:1,2021-05-04T09:48:00Z,27.7950,-90.6470,12.0,23.9,11111222
Enven,ioos:station:wmo:42362:1,2021-05-04T09:58:00Z,27.7950,-90.6470,12.0,23.9,11111222
Enven,ioos:station:wmo:42362:1,2021-05-04T10:08:00Z,27.7950,-90.6470,12.0,23.8,11111222
Enven,ioos:station:wmo:42362:1,2021-05-04T10:18:00Z,27.7950,-90.6470,12.0,23.8,11111222
Enven,ioos:station:wmo:42362:1,2021-05-04T10:28:00Z,27.7950,-90.6470,12.0,23.8,11111222
Enven,ioos:station:wmo:42362:1,2021-05-04T10:38:00Z,27.7950,-90.6470,12.0,23.8,11111222
Enven,ioos:station:wmo:42362:1,2021-05-04T10:48:00Z,27.7950,-90.6470,12.0,23.8,11111222
Enven,ioos:station:wmo:42362:1,2021-05-04T10:58:00Z,27.7950,-90.6470,12.0,23.8,11111222
Enven,ioos:station:wmo:42362:1,2021-05-04T11:08:00Z,27.7950,-90.6470,12.0,23.8,11111222
Enven,ioos:station:wmo:42362:1,2021-05-04T11:18:00Z,27.7950,-90.6470,12.0,23.8,11111222
Enven,ioos:station:wmo:42362:1,2021-05-04T11:28:00Z,27.7950,-90.6470,12.0,23.9,11111222
Enven,ioos:station:wmo:42362:1,2021-05-04T11:38:00Z,27.7950,-90.6470,12.0,24.0,11111222
Enven,ioos:station:wmo:42362:1,2021-05-04T11:48:00Z,27.7950,-90.6470,12.0,24.1,11111222
Enven,ioos:station:wmo:42362:1,2021-05-04T11:58:00Z,27.7950,-90.6470,12.0,24.2,11111222
Enven,ioos:station:wmo:42362:1,2021-05-04T12:08:00Z,27.7950,-90.6470,12.0,24.4,11111222
Enven,ioos:station:wmo:42362:1,2021-05-04T12:18:00Z,27.7950,-90.6470,12.0,24.4,11111222
Enven,ioos:station:wmo:42362:1,2021-05-04T12:28:00Z,27.7950,-90.6470,12.0,24.5,11111222
Enven,ioos:station:wmo:42362:1,2021-05-04T12:38:00Z,27.7950,-90.6470,12.0,24.5,11111222
Enven,ioos:station:wmo:42362:1,2021-05-04T12:48:00Z,27.7950,-90.6470,12.0,24.5,11111222
Enven,ioos:station:wmo:42362:1,2021-05-04T12:58:00Z,27.7950,-90.6470,12.0,24.5,11111222
Enven,ioos:station:wmo:42362:1,2021-05-04T13:08:00Z,27.7950,-90.6470,12.0,24.5,11111222
Enven,ioos:station:wmo:42362:1,2021-05-04T13:18:00Z,27.7950,-90.6470,12.0,24.6,11111222
Enven,ioos:station:wmo:42362:1,2021-05-04T13:28:00Z,27.7950,-90.6470,12.0,24.5,11111222
Enven,ioos:station:wmo:42362:1,2021-05-04T13:38:00Z,27.7950,-90.6470,12.0,24.5,11111222
Enven,ioos:station:wmo:42362:1,2021-05-04T13:48:00Z,27.7950,-90.6470,12.0,24.5,11111222
Enven,ioos:station:wmo:42362:1,2021-05-04T13:58:00Z,27.7950,-90.6470,12.0,24.5,11111222
Enven,ioos:station:wmo:42362:1,2021-05-04T14:08:00Z,27.7950,-90.6470,12.0,24.5,11111222
Enven,ioos:station:wmo:42362:1,2021-05-04T14:18:00Z,27.7950,-90.6470,12.0,24.5,11111222
Enven,ioos:station:wmo:42362:1,2021-05-04T14:28:00Z,27.7950,-90.6470,12.0,24.6,11111222
Enven,ioos:station:wmo:42362:1,2021-05-04T14:38:00Z,27.7950,-90.6470,12.0,24.6,11111222
Enven,ioos:station:wmo:42362:1,2021-05-04T14:48:00Z,27.7950,-90.6470,12.0,24.6,11111222
Enven,ioos:station:wmo:42362:1,2021-05-04T14:58:00Z,27.7950,-90.6470,12.0,24.6,11111222
Enven,ioos:station:wmo:42362:1,2021-05-04T15:08:00Z,27.7950,-90.6470,12.0,24.6,11111222
Enven,ioos:station:wmo:42362:1,2021-05-04T15:18:00Z,27.7950,-90.6470,12.0,24.7,11111222
Enven,ioos:station:wmo:42362:1,2021-05-04T15:28:00Z,27.7950,-90.6470,12.0,24.7,11111222
Enven,ioos:station:wmo:42362:1,2021-05-04T15:38:00Z,27.7950,-90.6470,12.0,24.7,11111222
Enven,ioos:station:wmo:42362:1,2021-05-04T15:48:00Z,27.7950,-90.6470,12.0,24.6,11111222
Enven,ioos:station:wmo:42362:1,2021-05-04T15:58:00Z,27.7950,-90.6470,12.0,24.6,11111222
Enven,ioos:station:wmo:42362:1,2021-05-04T16:08:00Z,27.7950,-90.6470,12.0,24.7,11111222
Enven,ioos:station:wmo:42362:1,2021-05-04T16:18:00Z,27.7950,-90.6470,12.0,24.6,11111222
Enven,ioos:station:wmo:42362:1,2021-05-04T16:28:00Z,27.7950,-90.6470,12.0,24.6,11111222
Enven,ioos:station:wmo:42362:1,2021-05-04T16:38:00Z,27.7950,-90.6470,12.0,24.6,11111222
Enven,ioos:station:wmo:42362:1,2021-05-04T16:48:00Z,27.7950,-90.6470,12.0,24.7,11111222
Enven,ioos:station:wmo:42362:1,2021-05-04T16:58:00Z,27.7950,-90.6470,12.0,24.6,11111222
Enven,ioos:station:wmo:42362:1,2021-05-04T17:08:00Z,27.7950,-90.6470,12.0,24.6,11111222
Enven,ioos:station:wmo:42362:1,2021-05-04T17:18:00Z,27.7950,-90.6470,12.0,24.6,11111222
Enven,ioos:station:wmo:42362:1,2021-05-04T17:28:00Z,27.7950,-90.6470,12.0,24.6,11111222
Enven,ioos:station:wmo:42362:1,2021-05-04T17:38:00Z,27.7950,-90.6470,12.0,24.6,11111222
Enven,ioos:station:wmo:42362:1,2021-05-04T17:48:00Z,27.7950,-90.6470,12.0,24.6,11111222
Enven,ioos:station:wmo:42362:1,2021-05-04T17:58:00Z,27.7950,-90.6470,12.0,24.5,11111222
Enven,ioos:station:wmo:42362:1,2021-05-04T18:08:00Z,27.7950,-90.6470,12.0,24.6,11111222
Enven,ioos:station:wmo:42362:1,2021-05-04T18:18:00Z,27.7950,-90.6470,12.0,24.6,11111222
Enven,ioos:station:wmo:42362:1,2021-05-04T18:28:00Z,27.7950,-90.6470,12.0,24.6,11111222
Enven,ioos:station:wmo:42362:1,2021-05-04T18:38:00Z,27.7950,-90.6470,12.0,24.6,11111222
Enven,ioos:station:wmo:42362:1,2021-05-04T18:48:00Z,27.7950,-90.6470,12.0,24.6,11111222
Enven,ioos:station:wmo:42362:1,2021-05-04T18:58:00Z,27.7950,-90.6470,12.0,24.5,11111222
Enven,ioos:station:wmo:42362:1,2021-05-04T19:08:00Z,27.7950,-90.6470,12.0,24.5,11111222
Enven,ioos:station:wmo:42362:1,2021-05-04T19:18:00Z,27.7950,-90.6470,12.0,24.4,11111222
Enven,ioos:station:wmo:42362:1,2021-05-04T19:28:00Z,27.7950,-90.6470,12.0,24.4,11111222
Enven,ioos:station:wmo:42362:1,2021-05-04T19:38:00Z,27.7950,-90.6470,12.0,24.3,11111222
Enven,ioos:station:wmo:42362:1,2021-05-04T19:48:00Z,27.7950,-90.6470,12.0,24.3,11111222
Enven,ioos:station:wmo:42362:1,2021-05-04T19:58:00Z,27.7950,-90.6470,12.0,24.3,11111222
Enven,ioos:station:wmo:42362:1,2021-05-04T20:08:00Z,27.7950,-90.6470,12.0,24.3,11111222
Enven,ioos:station:wmo:42362:1,2021-05-04T20:18:00Z,27.7950,-90.6470,12.0,24.3,11111222
Enven,ioos:station:wmo:42362:1,2021-05-04T20:28:00Z,27.7950,-90.6470,12.0,24.3,11111222
Enven,ioos:station:wmo:42362:1,2021-05-04T20:38:00Z,27.7950,-90.6470,12.0,24.3,11111222
Enven,ioos:station:wmo:42362:1,2021-05-04T20:48:00Z,27.7950,-90.6470,12.0,24.3,11111222
Enven,ioos:station:wmo:42362:1,2021-05-04T20:58:00Z,27.7950,-90.6470,12.0,24.3,11111222
Enven,ioos:station:wmo:42362:1,2021-05-04T21:08:00Z,27.7950,-90.6470,12.0,24.3,11111222
Enven,ioos:station:wmo:42362:1,2021-05-04T21:18:00Z,27.7950,-90.6470,12.0,24.3,11111222
Enven,ioos:station:wmo:42362:1,2021-05-04T21:28:00Z,27.7950,-90.6470,12.0,24.3,11111222
Enven,ioos:station:wmo:42362:1,2021-05-04T21:38:00Z,27.7950,-90.6470,12.0,24.3,11111222
Enven,ioos:station:wmo:42362:1,2021-05-04T21:48:00Z,27.7950,-90.6470,12.0,24.2,11111222
Enven,ioos:station:wmo:42362:1,2021-05-04T21:58:00Z,27.7950,-90.6470,12.0,24.2,11111222
Enven,ioos:station:wmo:42362:1,2021-05-04T22:08:00Z,27.7950,-90.6470,12.0,24.2,11111222
Enven,ioos:station:wmo:42362:1,2021-05-04T22:18:00Z,27.7950,-90.6470,12.0,24.2,11111222
Enven,ioos:station:wmo:42362:1,2021-05-04T22:28:00Z,27.7950,-90.6470,12.0,24.2,11111222
Enven,ioos:station:wmo:42362:1,2021-05-04T22:38:00Z,27.7950,-90.6470,12.0,24.2,11111222
Enven,ioos:station:wmo:42362:1,2021-05-04T22:48:00Z,27.7950,-90.6470,12.0,24.2,11111222
Enven,ioos:station:wmo:42362:1,2021-05-04T22:58:00Z,27.7950,-90.6470,12.0,24.2,11111222
Enven,ioos:station:wmo:42362:1,2021-05-04T23:08:00Z,27.7950,-90.6470,12.0,24.2,11111222
Enven,ioos:station:wmo:42362:1,2021-05-04T23:18:00Z,27.7950,-90.6470,12.0,24.2,11111222
Enven,ioos:station:wmo:42362:1,2021-05-04T23:28:00Z,27.7950,-90.6470,12.0,24.2,11111222
Enven,ioos:station:wmo:42362:1,2021-05-04T23:38:00Z,27.7950,-90.6470,12.0,24.2,11111222
Enven,ioos:station:wmo:42362:1,2021-05-04T23:48:00Z,27.7950,-90.6470,12.0,24.2,11111222
Enven,ioos:station:wmo:42362:1,2021-05-04T23:58:00Z,27.7950,-90.6470,12.0,24.2,11111222
Enven,ioos:station:wmo:42362:1,2021-05-05T00:08:00Z,27.7950,-90.6470,12.0,24.2,11111222
Enven,ioos:station:wmo:42362:1,2021-05-05T00:18:00Z,27.7950,-90.6470,12.0,24.2,11111222
Enven,ioos:station:wmo:42362:1,2021-05-05T00:28:00Z,27.7950,-90.6470,12.0,24.2,11111222
Enven,ioos:station:wmo:42362:1,2021-05-05T00:38:00Z,27.7950,-90.6470,12.0,24.2,11111222
Enven,ioos:station:wmo:42362:1,2021-05-05T00:48:00Z,27.7950,-90.6470,12.0,24.2,11111222
Enven,ioos:station:wmo:42362:1,2021-05-05T00:58:00Z,27.7950,-90.6470,12.0,24.2,11111222
Enven,ioos:station:wmo:42362:1,2021-05-05T01:08:00Z,27.7950,-90.6470,12.0,24.2,11111222
Enven,ioos:station:wmo:42362:1,2021-05-05T01:18:00Z,27.7950,-90.6470,12.0,24.3,11111222
Enven,ioos:station:wmo:42362:1,2021-05-05T01:28:00Z,27.7950,-90.6470,12.0,24.3,11111222
Enven,ioos:station:wmo:42362:1,2021-05-05T01:38:00Z,27.7950,-90.6470,12.0,24.3,11111222
Enven,ioos:station:wmo:42362:1,2021-05-05T01:48:00Z,27.7950,-90.6470,12.0,24.3,11111222
Enven,ioos:station:wmo:42362:1,2021-05-05T01:58:00Z,27.7950,-90.6470,12.0,24.4,11111222
Enven,ioos:station:wmo:42362:1,2021-05-05T02:08:00Z,27.7950,-90.6470,12.0,24.4,11111222
Enven,ioos:station:wmo:42362:1,2021-05-05T02:16:00Z,27.7950,-90.6470,12.0,24.4,11111222
Enven,ioos:station:wmo:42362:1,2021-05-05T15:18:00Z,27.7950,-90.6470,12.0,24.4,11111222
Enven,ioos:station:wmo:42362:1,2021-05-05T15:28:00Z,27.7950,-90.6470,12.0,24.4,11111222
Enven,ioos:station:wmo:42362:1,2021-05-05T15:38:00Z,27.7950,-90.6470,12.0,24.4,11111222
Enven,ioos:station:wmo:42362:1,2021-05-05T15:48:00Z,27.7950,-90.6470,12.0,24.4,11111222
Enven,ioos:station:wmo:42362:1,2021-05-05T15:58:00Z,27.7950,-90.6470,12.0,24.4,11111222
Enven,ioos:station:wmo:42362:1,2021-05-05T16:08:00Z,27.7950,-90.6470,12.0,24.4,11111222
Enven,ioos:station:wmo:42362:1,2021-05-05T16:18:00Z,27.7950,-90.6470,12.0,24.5,11111222
Enven,ioos:station:wmo:42362:1,2021-05-05T16:28:00Z,27.7950,-90.6470,12.0,24.5,11111222
Enven,ioos:station:wmo:42362:1,2021-05-05T16:38:00Z,27.7950,-90.6470,12.0,24.5,11111222
Enven,ioos:station:wmo:42362:1,2021-05-05T16:48:00Z,27.7950,-90.6470,12.0,24.4,11111222
Enven,ioos:station:wmo:42362:1,2021-05-05T16:58:00Z,27.7950,-90.6470,12.0,24.5,11111222
Enven,ioos:station:wmo:42362:1,2021-05-05T17:08:00Z,27.7950,-90.6470,12.0,24.5,11111222
Enven,ioos:station:wmo:42362:1,2021-05-05T17:18:00Z,27.7950,-90.6470,12.0,24.5,11111222
Enven,ioos:station:wmo:42362:1,2021-05-05T17:28:00Z,27.7950,-90.6470,12.0,24.4,11111222
Enven,ioos:station:wmo:42362:1,2021-05-05T17:38:00Z,27.7950,-90.6470,12.0,24.4,11111222
Enven,ioos:station:wmo:42362:1,2021-05-05T17:48:00Z,27.7950,-90.6470,12.0,24.5,11111222
Enven,ioos:station:wmo:42362:1,2021-05-05T17:58:00Z,27.7950,-90.6470,12.0,24.5,11111222
Enven,ioos:station:wmo:42362:1,2021-05-05T18:08:00Z,27.7950,-90.6470,12.0,24.4,11111222
Enven,ioos:station:wmo:42362:1,2021-05-05T18:18:00Z,27.7950,-90.6470,12.0,24.4,11111222
Enven,ioos:station:wmo:42362:1,2021-05-05T18:28:00Z,27.7950,-90.6470,12.0,24.4,11111222
Enven,ioos:station:wmo:42362:1,2021-05-05T18:38:00Z,27.7950,-90.6470,12.0,24.4,11111222
Enven,ioos:station:wmo:42362:1,2021-05-05T18:48:00Z,27.7950,-90.6470,12.0,24.4,11111222
Enven,ioos:station:wmo:42362:1,2021-05-05T19:08:00Z,27.7950,-90.6470,12.0,24.1,11111222
Enven,ioos:station:wmo:42362:1,2021-05-05T19:18:00Z,27.7950,-90.6470,12.0,24.1,11111222
Enven,ioos:station:wmo:42362:1,2021-05-05T19:28:00Z,27.7950,-90.6470,12.0,24.1,11111222
Enven,ioos:station:wmo:42362:1,2021-05-05T19:38:00Z,27.7950,-90.6470,12.0,24.2,11111222
Enven,ioos:station:wmo:42362:1,2021-05-05T19:48:00Z,27.7950,-90.6470,12.0,24.2,11111222
Enven,ioos:station:wmo:42362:1,2021-05-05T19:58:00Z,27.7950,-90.6470,12.0,24.1,11111222
Enven,ioos:station:wmo:42362:1,2021-05-05T20:08:00Z,27.7950,-90.6470,12.0,24.0,11111222
Enven,ioos:station:wmo:42362:1,2021-05-05T20:18:00Z,27.7950,-90.6470,12.0,23.9,11111222
Enven,ioos:station:wmo:42362:1,2021-05-05T20:28:00Z,27.7950,-90.6470,12.0,23.8,11111222
Enven,ioos:station:wmo:42362:1,2021-05-05T20:38:00Z,27.7950,-90.6470,12.0,23.8,11111222
Enven,ioos:station:wmo:42362:1,2021-05-05T20:48:00Z,27.7950,-90.6470,12.0,23.7,11111222
Enven,ioos:station:wmo:42362:1,2021-05-05T20:58:00Z,27.7950,-90.6470,12.0,23.6,11111222
Enven,ioos:station:wmo:42362:1,2021-05-05T21:08:00Z,27.7950,-90.6470,12.0,23.6,11111222
Enven,ioos:station:wmo:42362:1,2021-05-05T21:18:00Z,27.7950,-90.6470,12.0,23.5,11111222
Enven,ioos:station:wmo:42362:1,2021-05-05T21:28:00Z,27.7950,-90.6470,12.0,23.5,11111222
Enven,ioos:station:wmo:42362:1,2021-05-05T21:38:00Z,27.7950,-90.6470,12.0,23.5,11111222
Enven,ioos:station:wmo:42362:1,2021-05-05T21:48:00Z,27.7950,-90.6470,12.0,23.5,11111222
Enven,ioos:station:wmo:42362:1,2021-05-05T21:58:00Z,27.7950,-90.6470,12.0,23.5,11111222
Enven,ioos:station:wmo:42362:1,2021-05-05T22:08:00Z,27.7950,-90.6470,12.0,23.5,11111222
Enven,ioos:station:wmo:42362:1,2021-05-05T22:18:00Z,27.7950,-90.6470,12.0,23.5,11111222
Enven,ioos:station:wmo:42362:1,2021-05-05T22:28:00Z,27.7950,-90.6470,12.0,23.5,11111222
Enven,ioos:station:wmo:42362:1,2021-05-05T22:38:00Z,27.7950,-90.6470,12.0,23.6,11111222
Enven,ioos:station:wmo:42362:1,2021-05-05T22:48:00Z,27.7950,-90.6470,12.0,23.6,11111222
Enven,ioos:station:wmo:42362:1,2021-05-05T22:58:00Z,27.7950,-90.6470,12.0,23.6,11111222
Enven,ioos:station:wmo:42362:1,2021-05-05T23:08:00Z,27.7950,-90.6470,12.0,23.6,11111222
Enven,ioos:station:wmo:42362:1,2021-05-05T23:18:00Z,27.7950,-90.6470,12.0,23.6,11111222
Enven,ioos:station:wmo:42362:1,2021-05-05T23:28:00Z,27.7950,-90.6470,12.0,23.6,11111222
Enven,ioos:station:wmo:42362:1,2021-05-05T23:38:00Z,27.7950,-90.6470,12.0,23.7,11111222
Enven,ioos:station:wmo:42362:1,2021-05-05T23:48:00Z,27.7950,-90.6470,12.0,23.8,11111222
Enven,ioos:station:wmo:42362:1,2021-05-05T23:58:00Z,27.7950,-90.6470,12.0,23.8,11111222
Enven,ioos:station:wmo:42362:1,2021-05-06T00:08:00Z,27.7950,-90.6470,12.0,23.8,11111222
Enven,ioos:station:wmo:42362:1,2021-05-06T00:18:00Z,27.7950,-90.6470,12.0,23.9,11111222
Enven,ioos:station:wmo:42362:1,2021-05-06T00:28:00Z,27.7950,-90.6470,12.0,24.0,11111222
Enven,ioos:station:wmo:42362:1,2021-05-06T00:38:00Z,27.7950,-90.6470,12.0,23.9,11111222
Enven,ioos:station:wmo:42362:1,2021-05-06T00:48:00Z,27.7950,-90.6470,12.0,23.9,11111222
Enven,ioos:station:wmo:42362:1,2021-05-06T00:58:00Z,27.7950,-90.6470,12.0,24.0,11111222
Enven,ioos:station:wmo:42362:1,2021-05-06T01:08:00Z,27.7950,-90.6470,12.0,24.0,11111222
Enven,ioos:station:wmo:42362:1,2021-05-06T01:18:00Z,27.7950,-90.6470,12.0,23.9,11111222
Enven,ioos:station:wmo:42362:1,2021-05-06T01:28:00Z,27.7950,-90.6470,12.0,23.8,11111222
Enven,ioos:station:wmo:42362:1,2021-05-06T01:38:00Z,27.7950,-90.6470,12.0,23.8,11111222
Enven,ioos:station:wmo:42362:1,2021-05-06T01:48:00Z,27.7950,-90.6470,12.0,23.8,11111222
Enven,ioos:station:wmo:42362:1,2021-05-06T01:58:00Z,27.7950,-90.6470,12.0,23.9,11111222
Enven,ioos:station:wmo:42362:1,2021-05-06T02:08:00Z,27.7950,-90.6470,12.0,23.8,11111222
Enven,ioos:station:wmo:42362:1,2021-05-06T02:18:00Z,27.7950,-90.6470,12.0,23.7,11111222
Enven,ioos:station:wmo:42362:1,2021-05-06T02:28:00Z,27.7950,-90.6470,12.0,23.7,11111222
Enven,ioos:station:wmo:42362:1,2021-05-06T02:38:00Z,27.7950,-90.6470,12.0,23.8,11111222
Enven,ioos:station:wmo:42362:1,2021-05-06T02:48:00Z,27.7950,-90.6470,12.0,23.7,11111222
Enven,ioos:station:wmo:42362:1,2021-05-06T02:58:00Z,27.7950,-90.6470,12.0,23.7,11111222
Enven,ioos:station:wmo:42362:1,2021-05-06T03:08:00Z,27.7950,-90.6470,12.0,23.7,11111222
Enven,ioos:station:wmo:42362:1,2021-05-06T03:18:00Z,27.7950,-90.6470,12.0,23.8,11111222
Enven,ioos:station:wmo:42362:1,2021-05-06T03:28:00Z,27.7950,-90.6470,12.0,23.8,11111222
Enven,ioos:station:wmo:42362:1,2021-05-06T03:38:00Z,27.7950,-90.6470,12.0,23.9,11111222
Enven,ioos:station:wmo:42362:1,2021-05-06T03:48:00Z,27.7950,-90.6470,12.0,23.8,11111222
Enven,ioos:station:wmo:42362:1,2021-05-06T03:58:00Z,27.7950,-90.6470,12.0,23.8,11111222
Enven,ioos:station:wmo:42362:1,2021-05-06T04:08:00Z,27.7950,-90.6470,12.0,23.8,11111222
Enven,ioos:station:wmo:42362:1,2021-05-06T04:18:00Z,27.7950,-90.6470,12.0,23.7,11111222
Enven,ioos:station:wmo:42362:1,2021-05-06T04:28:00Z,27.7950,-90.6470,12.0,23.7,11111222
Enven,ioos:station:wmo:42362:1,2021-05-06T04:38:00Z,27.7950,-90.6470,12.0,23.8,11111222
Enven,ioos:station:wmo:42362:1,2021-05-06T04:48:00Z,27.7950,-90.6470,12.0,23.9,11111222
Enven,ioos:station:wmo:42362:1,2021-05-06T04:58:00Z,27.7950,-90.6470,12.0,23.9,11111222
Enven,ioos:station:wmo:42362:1,2021-05-06T05:08:00Z,27.7950,-90.6470,12.0,23.9,11111222
Enven,ioos:station:wmo:42362:1,2021-05-06T05:18:00Z,27.7950,-90.6470,12.0,23.9,11111222
Enven,ioos:station:wmo:42362:1,2021-05-06T05:28:00Z,27.7950,-90.6470,12.0,23.8,11111222
Enven,ioos:station:wmo:42362:1,2021-05-06T05:38:00Z,27.7950,-90.6470,12.0,23.8,11111222
Enven,ioos:station:wmo:42362:1,2021-05-06T05:48:00Z,27.7950,-90.6470,12.0,23.9,11111222
Enven,ioos:station:wmo:42362:1,2021-05-06T05:58:00Z,27.7950,-90.6470,12.0,23.9,11111222
Enven,ioos:station:wmo:42362:1,2021-05-06T06:08:00Z,27.7950,-90.6470,12.0,23.9,11111222
Enven,ioos:station:wmo:42362:1,2021-05-06T06:18:00Z,27.7950,-90.6470,12.0,23.9,11111222
Enven,ioos:station:wmo:42362:1,2021-05-06T06:28:00Z,27.7950,-90.6470,12.0,23.8,11111222
Enven,ioos:station:wmo:42362:1,2021-05-06T06:38:00Z,27.7950,-90.6470,12.0,23.7,11111222
Enven,ioos:station:wmo:42362:1,2021-05-06T06:48:00Z,27.7950,-90.6470,12.0,23.6,11111222
Enven,ioos:station:wmo:42362:1,2021-05-06T06:58:00Z,27.7950,-90.6470,12.0,23.6,11111222
Enven,ioos:station:wmo:42362:1,2021-05-06T07:08:00Z,27.7950,-90.6470,12.0,23.6,11111222
Enven,ioos:station:wmo:42362:1,2021-05-06T07:18:00Z,27.7950,-90.6470,12.0,23.6,11111222
Enven,ioos:station:wmo:42362:1,2021-05-06T07:28:00Z,27.7950,-90.6470,12.0,23.7,11111222
Enven,ioos:station:wmo:42362:1,2021-05-06T07:38:00Z,27.7950,-90.6470,12.0,23.7,11111222
Enven,ioos:station:wmo:42362:1,2021-05-06T07:48:00Z,27.7950,-90.6470,12.0,23.7,11111222
Enven,ioos:station:wmo:42362:1,2021-05-06T07:58:00Z,27.7950,-90.6470,12.0,23.7,11111222
Enven,ioos:station:wmo:42362:1,2021-05-06T08:08:00Z,27.7950,-90.6470,12.0,23.7,11111222
Enven,ioos:station:wmo:42362:1,2021-05-06T08:18:00Z,27.7950,-90.6470,12.0,23.8,11111222
Enven,ioos:station:wmo:42362:1,2021-05-06T08:28:00Z,27.7950,-90.6470,12.0,23.8,11111222
Enven,ioos:station:wmo:42362:1,2021-05-06T08:38:00Z,27.7950,-90.6470,12.0,23.9,11111222
Enven,ioos:station:wmo:42362:1,2021-05-06T08:48:00Z,27.7950,-90.6470,12.0,23.9,11111222
Enven,ioos:station:wmo:42362:1,2021-05-06T08:58:00Z,27.7950,-90.6470,12.0,24.0,11111222
Enven,ioos:station:wmo:42362:1,2021-05-06T09:08:00Z,27.7950,-90.6470,12.0,23.9,11111222
Enven,ioos:station:wmo:42362:1,2021-05-06T09:18:00Z,27.7950,-90.6470,12.0,24.0,11111222
Enven,ioos:station:wmo:42362:1,2021-05-06T09:28:00Z,27.7950,-90.6470,12.0,24.0,11111222
Enven,ioos:station:wmo:42362:1,2021-05-06T09:38:00Z,27.7950,-90.6470,12.0,24.0,11111222
Enven,ioos:station:wmo:42362:1,2021-05-06T09:48:00Z,27.7950,-90.6470,12.0,23.9,11111222
Enven,ioos:station:wmo:42362:1,2021-05-06T09:58:00Z,27.7950,-90.6470,12.0,23.9,11111222
Enven,ioos:station:wmo:42362:1,2021-05-06T10:08:00Z,27.7950,-90.6470,12.0,23.9,11111222
Enven,ioos:station:wmo:42362:1,2021-05-06T10:18:00Z,27.7950,-90.6470,12.0,23.9,11111222
Enven,ioos:station:wmo:42362:1,2021-05-06T10:28:00Z,27.7950,-90.6470,12.0,23.9,11111222
Enven,ioos:station:wmo:42362:1,2021-05-06T10:38:00Z,27.7950,-90.6470,12.0,23.8,11111222
Enven,ioos:station:wmo:42362:1,2021-05-06T10:48:00Z,27.7950,-90.6470,12.0,23.8,11111222
Enven,ioos:station:wmo:42362:1,2021-05-06T10:58:00Z,27.7950,-90.6470,12.0,23.8,11111222
Enven,ioos:station:wmo:42362:1,2021-05-06T11:08:00Z,27.7950,-90.6470,12.0,23.9,11111222
Enven,ioos:station:wmo:42362:1,2021-05-06T11:18:00Z,27.7950,-90.6470,12.0,23.9,11111222
Enven,ioos:station:wmo:42362:1,2021-05-06T11:28:00Z,27.7950,-90.6470,12.0,23.9,11111222
Enven,ioos:station:wmo:42362:1,2021-05-06T11:38:00Z,27.7950,-90.6470,12.0,23.9,11111222
Enven,ioos:station:wmo:42362:1,2021-05-06T11:48:00Z,27.7950,-90.6470,12.0,23.9,11111222
Enven,ioos:station:wmo:42362:1,2021-05-06T11:58:00Z,27.7950,-90.6470,12.0,23.9,11111222
Enven,ioos:station:wmo:42362:1,2021-05-06T12:06:00Z,27.7950,-90.6470,12.0,24.1,11111222
Enven,ioos:station:wmo:42362:1,2021-05-06T12:08:00Z,27.7950,-90.6470,12.0,23.9,11111222